| time (UTC) | temp C | wind direction | speed KPH | gust KPH | rain 1hr cm | rain 24hr cm | rain mn cm | humidity % | barometer mb |
| 20260504050514 | 10 | 14 | 11.3 | 32.2 | 0.00 | 0.00 | 0.00 | 44 | 1011.2 |
| 20260504050010 | 11 | 19 | 20.9 | 30.6 | 0.00 | 0.00 | 0.00 | 43 | 1011.0 |
| 20260504045507 | 11 | 10 | 32.2 | 32.2 | 0.00 | 0.00 | 0.00 | 42 | 1010.9 |
| 20260504045003 | 11 | 8 | 22.5 | 30.6 | 0.00 | 0.00 | 0.00 | 43 | 1010.9 |
| 20260504044501 | 11 | 7 | 20.9 | 35.4 | 0.00 | 0.00 | 0.00 | 42 | 1010.8 |
| 20260504043958 | 11 | 27 | 14.5 | 38.6 | 0.00 | 0.00 | 0.00 | 42 | 1011.0 |
| 20260504043455 | 11 | 18 | 16.1 | 37.0 | 0.00 | 0.00 | 0.00 | 41 | 1010.8 |
| 20260504042952 | 11 | 18 | 29.0 | 38.6 | 0.00 | 0.00 | 0.00 | 42 | 1010.7 |
| 20260504042449 | 11 | 22 | 29.0 | 51.5 | 0.00 | 0.00 | 0.00 | 42 | 1010.5 |
| 20260504041946 | 11 | 6 | 8.0 | 37.0 | 0.00 | 0.00 | 0.00 | 43 | 1010.6 |
| 20260504041442 | 12 | 8 | 29.0 | 37.0 | 0.00 | 0.00 | 0.00 | 44 | 1010.1 |
| 20260504040937 | 12 | 20 | 29.0 | 35.4 | 0.00 | 0.00 | 0.00 | 46 | 1009.7 |
| 20260504040435 | 12 | 5 | 19.3 | 33.8 | 0.00 | 0.00 | 0.00 | 46 | 1009.7 |
| 20260504035931 | 12 | 16 | 20.9 | 32.2 | 0.00 | 0.00 | 0.00 | 46 | 1009.6 |
| 20260504035429 | 12 | 11 | 25.7 | 37.0 | 0.00 | 0.00 | 0.00 | 43 | 1009.0 |
| 20260504034926 | 13 | 339 | 17.7 | 25.7 | 0.00 | 0.00 | 0.00 | 42 | 1008.8 |
| 20260504034423 | 12 | 1 | 14.5 | 24.1 | 0.00 | 0.00 | 0.00 | 42 | 1008.7 |
| 20260504033920 | 12 | 339 | 16.1 | 19.3 | 0.00 | 0.00 | 0.00 | 43 | 1008.4 |
| 20260504033418 | 13 | 343 | 16.1 | 20.9 | 0.00 | 0.00 | 0.00 | 42 | 1008.4 |
| 20260504032915 | 13 | 338 | 12.9 | 17.7 | 0.00 | 0.00 | 0.00 | 42 | 1008.3 |
| 20260504032411 | 13 | 4 | 8.0 | 17.7 | 0.00 | 0.00 | 0.00 | 42 | 1008.4 |
| 20260504031908 | 13 | 346 | 12.9 | 14.5 | 0.00 | 0.00 | 0.00 | 42 | 1008.0 |
| 20260504031405 | 13 | 6 | 11.3 | 14.5 | 0.00 | 0.00 | 0.00 | 42 | 1008.0 |
| 20260504030902 | 13 | 9 | 16.1 | 17.7 | 0.00 | 0.00 | 0.00 | 41 | 1008.4 |
| 20260504030359 | 13 | 14 | 12.9 | 19.3 | 0.00 | 0.00 | 0.00 | 40 | 1008.1 |
| 20260504025855 | 13 | 5 | 14.5 | 17.7 | 0.00 | 0.00 | 0.00 | 40 | 1007.8 |
| 20260504025352 | 13 | 10 | 9.7 | 17.7 | 0.00 | 0.00 | 0.00 | 40 | 1007.9 |
| 20260504024849 | 13 | 17 | 11.3 | 14.5 | 0.00 | 0.00 | 0.00 | 40 | 1007.9 |
| 20260504024345 | 14 | 24 | 12.9 | 20.9 | 0.00 | 0.00 | 0.00 | 40 | 1007.9 |
| 20260504023842 | 14 | 17 | 12.9 | 22.5 | 0.00 | 0.00 | 0.00 | 39 | 1007.8 |
| 20260504023339 | 15 | 32 | 12.9 | 24.1 | 0.00 | 0.00 | 0.00 | 39 | 1007.8 |
| 20260504022834 | 15 | 25 | 19.3 | 27.4 | 0.00 | 0.00 | 0.00 | 38 | 1007.6 |
| 20260504022332 | 15 | 36 | 17.7 | 29.0 | 0.00 | 0.00 | 0.00 | 38 | 1007.7 |
| 20260504021828 | 15 | 40 | 20.9 | 29.0 | 0.00 | 0.00 | 0.00 | 39 | 1007.7 |
| 20260504021326 | 15 | 37 | 22.5 | 30.6 | 0.00 | 0.00 | 0.00 | 38 | 1007.7 |
| 20260504020822 | 16 | 28 | 17.7 | 27.4 | 0.00 | 0.00 | 0.00 | 37 | 1007.6 |
| 20260504020319 | 16 | 47 | 19.3 | 30.6 | 0.00 | 0.00 | 0.00 | 36 | 1007.6 |
| 20260504015815 | 17 | 1 | 20.9 | 41.8 | 0.00 | 0.00 | 0.00 | 35 | 1007.6 |
| 20260504015311 | 17 | 19 | 24.1 | 38.6 | 0.00 | 0.00 | 0.00 | 34 | 1007.3 |
| 20260504014808 | 17 | 26 | 22.5 | 33.8 | 0.00 | 0.00 | 0.00 | 32 | 1007.5 |
| 20260504014304 | 18 | 13 | 29.0 | 33.8 | 0.00 | 0.00 | 0.00 | 31 | 1007.6 |
| 20260504013802 | 18 | 29 | 32.2 | 38.6 | 0.00 | 0.00 | 0.00 | 30 | 1007.1 |
| 20260504013259 | 18 | 25 | 11.3 | 32.2 | 0.00 | 0.00 | 0.00 | 31 | 1007.3 |
| 20260504012755 | 18 | 12 | 20.9 | 35.4 | 0.00 | 0.00 | 0.00 | 30 | 1007.3 |
| 20260504012254 | 19 | 9 | 17.7 | 29.0 | 0.00 | 0.00 | 0.00 | 28 | 1007.1 |
| 20260504011750 | 20 | 11 | 27.4 | 41.8 | 0.00 | 0.00 | 0.00 | 26 | 1007.1 |
| 20260504011247 | 20 | 31 | 27.4 | 33.8 | 0.00 | 0.00 | 0.00 | 27 | 1007.1 |
| 20260504010743 | 20 | 359 | 20.9 | 33.8 | 0.00 | 0.00 | 0.00 | 28 | 1007.1 |
| 20260504010238 | 20 | 13 | 20.9 | 32.2 | 0.00 | 0.00 | 0.00 | 28 | 1007.1 |
| 20260504005736 | 21 | 327 | 14.5 | 27.4 | 0.00 | 0.00 | 0.00 | 27 | 1006.8 |
| 20260504005233 | 21 | 314 | 16.1 | 25.7 | 0.00 | 0.00 | 0.00 | 24 | 1006.9 |
| 20260504004730 | 21 | 326 | 17.7 | 25.7 | 0.00 | 0.00 | 0.00 | 24 | 1007.0 |
| 20260504004227 | 21 | 348 | 24.1 | 32.2 | 0.00 | 0.00 | 0.00 | 24 | 1007.1 |
| 20260504003724 | 21 | 328 | 25.7 | 32.2 | 0.00 | 0.00 | 0.00 | 24 | 1007.1 |
| 20260504003221 | 21 | 0 | 16.1 | 33.8 | 0.00 | 0.00 | 0.00 | 25 | 1006.9 |
| 20260504002718 | 21 | 335 | 12.9 | 45.1 | 0.00 | 0.00 | 0.00 | 25 | 1007.4 |
| 20260504002214 | 21 | 328 | 17.7 | 27.4 | 0.00 | 0.00 | 0.00 | 24 | 1007.1 |
| 20260504001712 | 21 | 333 | 29.0 | 32.2 | 0.00 | 0.00 | 0.00 | 23 | 1007.1 |
| 20260504001209 | 21 | 329 | 22.5 | 24.1 | 0.00 | 0.00 | 0.00 | 22 | 1007.5 |
| 20260504000706 | 21 | 291 | 22.5 | 29.0 | 0.00 | 0.00 | 0.00 | 23 | 1007.8 |
| 20260504000204 | 21 | 329 | 14.5 | 30.6 | 0.00 | 0.00 | 0.00 | 24 | 1007.5 |
| 20260503235701 | 21 | 310 | 11.3 | 32.2 | 0.00 | 0.00 | 0.00 | 24 | 1007.5 |
| 20260503235157 | 21 | 342 | 29.0 | 37.0 | 0.00 | 0.00 | 0.00 | 24 | 1007.5 |
| 20260503234655 | 21 | 344 | 20.9 | 35.4 | 0.00 | 0.00 | 0.00 | 24 | 1007.9 |
| 20260503234154 | 21 | 316 | 19.3 | 30.6 | 0.00 | 0.00 | 0.00 | 24 | 1007.3 |
| 20260503233650 | 21 | 323 | 17.7 | 41.8 | 0.00 | 0.00 | 0.00 | 24 | 1007.6 |
| 20260503233145 | 21 | 358 | 9.7 | 29.0 | 0.00 | 0.00 | 0.00 | 24 | 1007.6 |
| 20260503232642 | 21 | 356 | 16.1 | 33.8 | 0.00 | 0.00 | 0.00 | 24 | 1007.6 |
| 20260503232139 | 22 | 357 | 37.0 | 40.2 | 0.00 | 0.00 | 0.00 | 24 | 1007.5 |
| 20260503231638 | 21 | 348 | 25.7 | 38.6 | 0.00 | 0.00 | 0.00 | 24 | 1007.7 |
| 20260503231133 | 21 | 334 | 22.5 | 40.2 | 0.00 | 0.00 | 0.00 | 23 | 1007.5 |
| 20260503230630 | 21 | 353 | 24.1 | 37.0 | 0.00 | 0.00 | 0.00 | 23 | 1007.6 |
| 20260503230128 | 21 | 300 | 19.3 | 38.6 | 0.00 | 0.00 | 0.00 | 23 | 1007.7 |
| 20260503225625 | 21 | 319 | 22.5 | 43.5 | 0.00 | 0.00 | 0.00 | 23 | 1007.7 |
| 20260503225124 | 21 | 285 | 27.4 | 45.1 | 0.00 | 0.00 | 0.00 | 23 | 1007.6 |
| 20260503224622 | 21 | 344 | 16.1 | 35.4 | 0.00 | 0.00 | 0.00 | 25 | 1007.8 |
| 20260503224120 | 21 | 336 | 32.2 | 43.5 | 0.00 | 0.00 | 0.00 | 24 | 1007.9 |
| 20260503223618 | 21 | 329 | 40.2 | 46.7 | 0.00 | 0.00 | 0.00 | 23 | 1007.8 |
| 20260503223113 | 22 | 328 | 24.1 | 37.0 | 0.00 | 0.00 | 0.00 | 24 | 1007.8 |
| 20260503222611 | 22 | 328 | 9.7 | 40.2 | 0.00 | 0.00 | 0.00 | 24 | 1008.0 |
| 20260503222109 | 21 | 0 | 32.2 | 40.2 | 0.00 | 0.00 | 0.00 | 24 | 1007.7 |
| 20260503221608 | 21 | 323 | 11.3 | 41.8 | 0.00 | 0.00 | 0.00 | 24 | 1008.0 |
| 20260503221105 | 21 | 334 | 32.2 | 48.3 | 0.00 | 0.00 | 0.00 | 24 | 1008.1 |
| 20260503220601 | 21 | 294 | 12.9 | 41.8 | 0.00 | 0.00 | 0.00 | 24 | 1008.1 |
| 20260503220058 | 21 | 299 | 20.9 | 32.2 | 0.00 | 0.00 | 0.00 | 23 | 1008.4 |
| 20260503215555 | 21 | 305 | 12.9 | 37.0 | 0.00 | 0.00 | 0.00 | 23 | 1008.1 |
| 20260503215051 | 21 | 268 | 8.0 | 30.6 | 0.00 | 0.00 | 0.00 | 25 | 1008.1 |
| 20260503214549 | 21 | 301 | 29.0 | 35.4 | 0.00 | 0.00 | 0.00 | 25 | 1008.5 |
| 20260503214046 | 21 | 304 | 17.7 | 33.8 | 0.00 | 0.00 | 0.00 | 24 | 1008.4 |
| 20260503213544 | 21 | 336 | 20.9 | 38.6 | 0.00 | 0.00 | 0.00 | 24 | 1008.6 |
| 20260503213041 | 21 | 332 | 9.7 | 37.0 | 0.00 | 0.00 | 0.00 | 25 | 1008.8 |
| 20260503212538 | 21 | 0 | 25.7 | 37.0 | 0.00 | 0.00 | 0.00 | 25 | 1008.7 |
| 20260503212036 | 21 | 328 | 35.4 | 37.0 | 0.00 | 0.00 | 0.00 | 23 | 1008.9 |
| 20260503211532 | 21 | 329 | 29.0 | 40.2 | 0.00 | 0.00 | 0.00 | 24 | 1008.8 |
| 20260503211028 | 21 | 317 | 19.3 | 46.7 | 0.00 | 0.00 | 0.00 | 24 | 1008.6 |
| 20260503210525 | 21 | 291 | 27.4 | 37.0 | 0.00 | 0.00 | 0.00 | 24 | 1008.8 |
| 20260503210021 | 21 | 316 | 16.1 | 40.2 | 0.00 | 0.00 | 0.00 | 24 | 1008.8 |
| 20260503205517 | 21 | 320 | 16.1 | 38.6 | 0.00 | 0.00 | 0.00 | 24 | 1008.8 |
| 20260503205014 | 20 | 281 | 8.0 | 24.1 | 0.00 | 0.00 | 0.00 | 25 | 1009.0 |
| 20260503204511 | 21 | 297 | 30.6 | 40.2 | 0.00 | 0.00 | 0.00 | 24 | 1009.3 |
| 20260503204008 | 21 | 350 | 12.9 | 30.6 | 0.00 | 0.00 | 0.00 | 26 | 1009.3 |
| 20260503203505 | 21 | 335 | 38.6 | 43.5 | 0.00 | 0.00 | 0.00 | 24 | 1009.1 |
| 20260503203002 | 20 | 319 | 25.7 | 45.1 | 0.00 | 0.00 | 0.00 | 25 | 1009.1 |
| 20260503202500 | 20 | 319 | 24.1 | 35.4 | 0.00 | 0.00 | 0.00 | 24 | 1009.4 |
| 20260503201958 | 21 | 1 | 19.3 | 41.8 | 0.00 | 0.00 | 0.00 | 26 | 1009.4 |
| 20260503201455 | 20 | 301 | 12.9 | 33.8 | 0.00 | 0.00 | 0.00 | 25 | 1009.4 |
| 20260503200952 | 20 | 336 | 24.1 | 30.6 | 0.00 | 0.00 | 0.00 | 25 | 1009.3 |
| 20260503200449 | 21 | 341 | 22.5 | 32.2 | 0.00 | 0.00 | 0.00 | 25 | 1009.5 |
| 20260503195945 | 20 | 324 | 33.8 | 41.8 | 0.00 | 0.00 | 0.00 | 24 | 1009.3 |
| 20260503195443 | 20 | 289 | 20.9 | 24.1 | 0.00 | 0.00 | 0.00 | 27 | 1009.4 |
| 20260503194939 | 20 | 337 | 20.9 | 32.2 | 0.00 | 0.00 | 0.00 | 26 | 1009.7 |
| 20260503194436 | 20 | 318 | 20.9 | 38.6 | 0.00 | 0.00 | 0.00 | 27 | 1009.7 |
| 20260503193931 | 20 | 320 | 22.5 | 30.6 | 0.00 | 0.00 | 0.00 | 26 | 1009.8 |
| 20260503193427 | 20 | 341 | 22.5 | 27.4 | 0.00 | 0.00 | 0.00 | 27 | 1010.2 |
| 20260503192923 | 20 | 302 | 14.5 | 33.8 | 0.00 | 0.00 | 0.00 | 28 | 1010.1 |
| 20260503192421 | 20 | 354 | 4.8 | 24.1 | 0.00 | 0.00 | 0.00 | 29 | 1010.2 |
| 20260503191916 | 19 | 351 | 14.5 | 35.4 | 0.00 | 0.00 | 0.00 | 27 | 1010.4 |
| 20260503191414 | 20 | 322 | 33.8 | 40.2 | 0.00 | 0.00 | 0.00 | 26 | 1010.2 |
| 20260503190909 | 18 | 329 | 29.0 | 40.2 | 0.00 | 0.00 | 0.00 | 28 | 1010.4 |
| 20260503190407 | 20 | 344 | 14.5 | 25.7 | 0.00 | 0.00 | 0.00 | 29 | 1010.5 |
| 20260503185903 | 20 | 321 | 17.7 | 35.4 | 0.00 | 0.00 | 0.00 | 28 | 1010.4 |
| 20260503185400 | 20 | 306 | 27.4 | 40.2 | 0.00 | 0.00 | 0.00 | 27 | 1010.6 |
| 20260503184859 | 19 | 302 | 17.7 | 33.8 | 0.00 | 0.00 | 0.00 | 28 | 1010.8 |
| 20260503184356 | 18 | 333 | 22.5 | 25.7 | 0.00 | 0.00 | 0.00 | 29 | 1010.8 |
| 20260503183852 | 19 | 7 | 12.9 | 29.0 | 0.00 | 0.00 | 0.00 | 29 | 1010.6 |
| 20260503183349 | 20 | 307 | 14.5 | 37.0 | 0.00 | 0.00 | 0.00 | 29 | 1011.0 |
| 20260503182846 | 18 | 355 | 17.7 | 27.4 | 0.00 | 0.00 | 0.00 | 32 | 1011.1 |
| 20260503182345 | 18 | 352 | 14.5 | 24.1 | 0.00 | 0.00 | 0.00 | 30 | 1011.0 |
| 20260503181842 | 18 | 275 | 11.3 | 22.5 | 0.00 | 0.00 | 0.00 | 30 | 1011.1 |
| 20260503181339 | 18 | 297 | 9.7 | 20.9 | 0.00 | 0.00 | 0.00 | 32 | 1011.2 |
| 20260503180835 | 19 | 324 | 17.7 | 22.5 | 0.00 | 0.00 | 0.00 | 32 | 1011.2 |
| 20260503180333 | 19 | 326 | 27.4 | 33.8 | 0.00 | 0.00 | 0.00 | 30 | 1011.2 |
| 20260503175829 | 18 | 344 | 12.9 | 19.3 | 0.00 | 0.00 | 0.00 | 30 | 1011.2 |
| 20260503175328 | 18 | 341 | 20.9 | 24.1 | 0.00 | 0.00 | 0.00 | 31 | 1011.4 |
| 20260503174823 | 18 | 307 | 12.9 | 30.6 | 0.00 | 0.00 | 0.00 | 30 | 1011.5 |
| 20260503174322 | 18 | 10 | 20.9 | 35.4 | 0.00 | 0.00 | 0.00 | 29 | 1011.5 |
| 20260503173817 | 18 | 289 | 8.0 | 24.1 | 0.00 | 0.00 | 0.00 | 29 | 1011.7 |
| 20260503173313 | 18 | 329 | 17.7 | 32.2 | 0.00 | 0.00 | 0.00 | 29 | 1011.8 |
| 20260503172810 | 18 | 305 | 19.3 | 32.2 | 0.00 | 0.00 | 0.00 | 30 | 1011.7 |
| 20260503172308 | 18 | 284 | 9.7 | 32.2 | 0.00 | 0.00 | 0.00 | 30 | 1011.9 |
| 20260503171803 | 18 | 8 | 16.1 | 29.0 | 0.00 | 0.00 | 0.00 | 28 | 1011.8 |
| 20260503171300 | 18 | 322 | 14.5 | 20.9 | 0.00 | 0.00 | 0.00 | 28 | 1011.9 |
| 20260503170758 | 17 | 294 | 11.3 | 20.9 | 0.00 | 0.00 | 0.00 | 31 | 1012.5 |
| 20260503170254 | 17 | 347 | 12.9 | 22.5 | 0.00 | 0.00 | 0.00 | 31 | 1012.0 |
| 20260503160217 | 16 | 288 | 19.3 | 37.0 | 0.00 | 0.00 | 0.00 | 34 | 1012.1 |
| 20260503150647 | 15 | 251 | 11.3 | 30.6 | 0.00 | 0.00 | 0.00 | 36 | 1012.0 |
| 20260503150143 | 15 | 289 | 24.1 | 32.2 | 0.00 | 0.00 | 0.00 | 36 | 1012.1 |
| 20260503140107 | 15 | 305 | 22.5 | 30.6 | 0.00 | 0.00 | 0.00 | 40 | 1012.5 |
| 20260503131036 | 13 | 288 | 16.1 | 29.0 | 0.00 | 0.00 | 0.00 | 45 | 1012.0 |
| 20260503130533 | 13 | 291 | 24.1 | 27.4 | 0.00 | 0.00 | 0.00 | 46 | 1012.0 |
| 20260503110424 | 9 | 165 | 3.2 | 4.8 | 0.00 | 0.00 | 0.00 | 59 | 1012.5 |
| 20260503090304 | 8 | 198 | 14.5 | 14.5 | 0.00 | 0.00 | 0.00 | 67 | 1013.0 |
| 20260503081236 | 8 | 163 | 12.9 | 16.1 | 0.00 | 0.00 | 0.00 | 64 | 1013.9 |
| 20260503080732 | 10 | 167 | 11.3 | 17.7 | 0.00 | 0.00 | 0.00 | 62 | 1014.0 |
| 20260503080229 | 10 | 140 | 12.9 | 19.3 | 0.00 | 0.00 | 0.00 | 61 | 1014.0 |
| 20260503072706 | 10 | 216 | 27.4 | 33.8 | 0.00 | 0.00 | 0.00 | 61 | 1014.3 |
| 20260503072203 | 9 | 223 | 22.5 | 29.0 | 0.00 | 0.00 | 0.00 | 63 | 1014.0 |
| 20260503071659 | 9 | 212 | 17.7 | 27.4 | 0.00 | 0.00 | 0.00 | 63 | 1014.0 |
| 20260503071156 | 8 | 201 | 16.1 | 25.7 | 0.00 | 0.00 | 0.00 | 64 | 1014.2 |
| 20260503070653 | 9 | 215 | 12.9 | 22.5 | 0.00 | 0.00 | 0.00 | 62 | 1014.3 |
| 20260503070151 | 9 | 227 | 14.5 | 24.1 | 0.00 | 0.00 | 0.00 | 63 | 1014.3 |